Location: Julian California
(33.0790°N, 116.6010°W)
Time: 14:57:44
(UTC-07:00)

Cosmos 2184 Rocket - Pass Details

Date: 19 May 2017
Orbit: 960 x 1001 km, 82.9° (Epoch: 24 May)

Event Time Altitude Azimuth Distance (km) Brightness Sun altitude
Rises 21:53:29 0° 353° (N) 3,723 7.9 -23.3°
Reaches altitude 10° 21:56:02 10° 353° (N) 2,767 7.1 -23.6°
Maximum altitude 22:02:24 87° 266° (W) 995 3.9 -24.5°
Enters shadow 22:04:23 47° 179° (S) 1,280 4.2 -24.8°
